Location: Riedlingen
(48.1569°N, 9.4757°E)
Time: 04:00:49
(UTC+02:00)

ISS - Pass Details

Date: 18 May 2021
Orbit: 417 x 422 km, 51.6° (Epoch: 15 June)

Event Time Altitude Azimuth Distance (km) Brightness Sun altitude
Rises 22:51:55 0° 261° (W) 2,362 0.4 -14.6°
Reaches altitude 10° 22:54:02 10° 266° (W) 1,500 -0.5 -14.8°
Maximum altitude 22:57:21 57° 346° (NNW) 501 -3.1 -15.1°
Drops below altitude 10° 23:00:41 10° 66° (ENE) 1,507 -1.0 -15.4°
Sets 23:02:49 0° 71° (ENE) 2,373 -0.1 -15.6°
